Location: Newark
(55.7681°N, 37.7103°E)
Time: 19:34:02
(UTC+00:00)

AO-85 - Visible Passes

Search period start: 07 December 2019 00:00
Search period end: 17 December 2019 00:00
Orbit: 516 x 768 km, 64.8° (Epoch: 05 December)

Date Brightness Start Highest point End Pass type
(mag) Time Alt. Az. Time Alt. Az. Time Alt. Az.
07 Dec ? 02:31:46 11° S 02:31:46 11° S 02:31:56 10° S visible
13 Dec ? 15:51:54 10° S 15:53:10 16° SSE 15:53:10 16° SSE visible
14 Dec ? 16:15:35 10° SSW 16:17:41 24° S 16:17:41 24° S visible
15 Dec ? 15:01:32 10° SSE 15:04:29 18° ESE 15:04:29 18° ESE visible
15 Dec ? 16:39:52 10° SW 16:42:07 28° SW 16:42:07 28° SW visible
16 Dec ? 15:24:45 10° S 15:28:51 33° SE 15:28:51 33° SE visible
16 Dec ? 17:04:37 10° WSW 17:06:28 23° WSW 17:06:28 23° WSW visible
